Preview of NWS' New Version of Forecast
This preview is not operational and should not be used for support decisions.

Regional Weather Roundup (RWR)

Issued by National Weather Service (NWS)

                            
000
ASUS45 KCYS 190910
RWRWY 

WYOMING REGIONAL WEATHER ROUNDUP
NATIONAL WEATHER SERVICE CHEYENNE WY
300 AM MDT FRI APR 19 2019

NOTE:  "FAIR" INDICATES FEW OR NO CLOUDS BELOW 12,000 FEET
WITH NO SIGNIFICANT WEATHER AND/OR OBSTRUCTIONS TO VISIBILITY.

WYZ001-191000-
YELLOWSTONE NATIONAL PARK
  
CITY           SKY/WX    TMP DP  RH WIND       PRES   REMARKS
LK YELLOWSTONE   N/A     25  22  88 CALM      30.30F                  
W YELLOWSTONE  NOT AVBL                                               

$$
WYZ002>013-054>058-071-098>099-191000-
NORTHERN WYOMING
  
CITY           SKY/WX    TMP DP  RH WIND       PRES   REMARKS
JACKSON        FAIR      30  27  88 NE5       30.29F WCI  25          
CODY           FAIR      57  29  34 W14G26    30.10F                  
GREYBULL       FAIR      47  27  45 SE3       30.07F                  
WORLAND        FAIR      42  32  67 SE9       30.09F                  
SHERIDAN       FAIR      41  32  70 SW6       30.02F                  
BUFFALO        FAIR      49  30  48 SW6       30.06F                  
GILLETTE       FAIR      45  30  55 SW18      30.04F                  
HULETT         FAIR      45  27  49 SW12      30.06F                  
NEWCASTLE      FAIR      34  23  64 CALM      30.13S                  

$$
WYZ014>020-022>026-101>103-191000-
CENTRAL WYOMING
  
CITY           SKY/WX    TMP DP  RH WIND       PRES   REMARKS
BIG PINEY      FAIR      29  24  82 NE9       30.30F WCI  20          
PINEDALE       FAIR      32  28  86 N6        30.31F WCI  26          
DUBOIS         FAIR      34  27  75 NW10      30.25F WCI  26          
LANDER         FAIR      46  27  47 VRB5      30.15F                  
RIVERTON       FAIR      44  29  55 W8        30.17S                  
CASPER         FAIR      37  31  78 W8        30.14F WCI  31          
DOUGLAS        FAIR      30  28  92 SE3       30.14F                  

$$
WYZ021-027>030-104>119-191000-
SOUTHERN WYOMING
  
CITY           SKY/WX    TMP DP  RH WIND       PRES   REMARKS
EVANSTON       FAIR      40  24  53 S7        30.32F                  
KEMMERER       FAIR      37  30  75 NW6       30.31F WCI  33          
ROCK SPRINGS   FAIR      39  29  67 SW7       30.28F WCI  34          
DIXON          FAIR      33  29  83 SE3       30.32S                  
RAWLINS        FAIR      40  29  64 SW15      30.24F WCI  32          
SARATOGA       FAIR      39  28  65 SW9       30.26S WCI  33          
LARAMIE        FAIR      30  24  78 S6        30.22F WCI  24          
CHEYENNE       CLOUDY    37  28  70 W7        30.20F WCI  32          
TORRINGTON     FAIR      31  27  85 NE5       30.17S WCI  26          
PINE BLUFFS    FAIR      30  25  80 S6        30.21F WCI  24          

$$